TimeEST,TemperatureF,Dew PointF,Humidity,Sea Level PressureIn,VisibilityMPH,Wind Direction,Wind SpeedMPH,Gust SpeedMPH,PrecipitationIn,Events,Conditions,WindDirDegrees,DateUTC
12:15 AM,31.6,31.6,100,30.38,4.0,Calm,Calm,-,N/A,,Clear,0,2012-11-17 05:15:00
12:35 AM,31.6,31.6,100,30.38,7.0,Calm,Calm,-,N/A,,Clear,0,2012-11-17 05:35:00
12:55 AM,31.6,31.6,100,30.38,5.0,Calm,Calm,-,N/A,,Clear,0,2012-11-17 05:55:00
1:15 AM,31.5,31.5,100,30.38,4.0,Calm,Calm,-,N/A,,Clear,0,2012-11-17 06:15:00
1:35 AM,30.6,30.6,100,30.39,4.0,Calm,Calm,-,N/A,,Clear,0,2012-11-17 06:35:00
1:55 AM,30.4,30.4,100,30.39,5.0,Calm,Calm,-,N/A,,Clear,0,2012-11-17 06:55:00
2:15 AM,30.0,30.0,100,30.39,7.0,Calm,Calm,-,N/A,,Clear,0,2012-11-17 07:15:00
2:35 AM,29.7,29.7,100,30.39,7.0,Calm,Calm,-,N/A,,Clear,0,2012-11-17 07:35:00
2:55 AM,29.7,29.7,100,30.39,10.0,Calm,Calm,-,N/A,,Clear,0,2012-11-17 07:55:00
3:15 AM,29.8,29.8,100,30.39,5.0,Calm,Calm,-,N/A,,Clear,0,2012-11-17 08:15:00
3:35 AM,29.8,29.8,100,30.40,7.0,Calm,Calm,-,N/A,,Clear,0,2012-11-17 08:35:00
3:55 AM,29.8,29.8,100,30.40,5.0,Calm,Calm,-,N/A,,Clear,0,2012-11-17 08:55:00
4:15 AM,29.7,29.7,100,30.39,5.0,North,4.6,-,N/A,,Clear,350,2012-11-17 09:15:00
4:35 AM,29.7,29.7,100,30.39,5.0,North,4.6,-,N/A,,Clear,350,2012-11-17 09:35:00
4:55 AM,30.0,30.0,100,30.39,5.0,North,3.5,-,N/A,,Clear,360,2012-11-17 09:55:00
5:15 AM,30.9,30.9,100,30.39,3.0,North,4.6,-,N/A,,Clear,360,2012-11-17 10:15:00
5:35 AM,31.5,31.5,100,30.40,4.0,North,5.8,-,N/A,,Clear,360,2012-11-17 10:35:00
5:55 AM,32.0,32.0,100,30.40,3.0,North,4.6,-,N/A,,Clear,360,2012-11-17 10:55:00
6:15 AM,32.5,32.5,100,30.41,3.0,North,4.6,-,N/A,,Clear,360,2012-11-17 11:15:00
6:35 AM,32.2,32.2,100,30.41,2.5,North,4.6,-,N/A,,Clear,360,2012-11-17 11:35:00
6:55 AM,32.2,32.2,100,30.43,2.0,Calm,Calm,-,N/A,,Clear,0,2012-11-17 11:55:00
7:15 AM,32.2,32.2,100,30.44,1.5,Calm,Calm,-,N/A,,Unknown,0,2012-11-17 12:15:00
7:35 AM,32.5,32.5,100,30.44,3.0,NNE,4.6,-,N/A,,Clear,20,2012-11-17 12:35:00
7:55 AM,33.1,33.1,100,30.44,2.0,North,4.6,-,N/A,,Clear,10,2012-11-17 12:55:00
8:15 AM,36.7,36.7,100,30.44,10.0,NNE,6.9,-,N/A,,Clear,30,2012-11-17 13:15:00
8:35 AM,41.0,39.0,93,30.45,10.0,NE,8.1,-,N/A,,Clear,40,2012-11-17 13:35:00
8:55 AM,42.8,37.4,81,30.46,10.0,NNE,9.2,-,N/A,,Clear,30,2012-11-17 13:55:00
9:15 AM,44.6,36.9,74,30.46,10.0,NE,11.5,20.7,N/A,,Clear,40,2012-11-17 14:15:00
9:35 AM,45.9,36.7,70,30.46,10.0,NNE,6.9,-,N/A,,Clear,30,2012-11-17 14:35:00
9:55 AM,46.9,35.6,65,30.46,10.0,NNE,9.2,17.3,N/A,,Clear,20,2012-11-17 14:55:00
10:15 AM,48.6,36.0,62,30.46,10.0,NE,12.7,19.6,N/A,,Clear,40,2012-11-17 15:15:00
10:35 AM,49.6,34.7,56,30.46,10.0,NE,12.7,20.7,N/A,,Clear,50,2012-11-17 15:35:00
10:55 AM,50.5,33.1,51,30.46,10.0,NE,13.8,23.0,N/A,,Clear,40,2012-11-17 15:55:00
11:15 AM,51.3,32.5,49,30.45,10.0,NNE,12.7,19.6,N/A,,Clear,30,2012-11-17 16:15:00
11:35 AM,52.2,32.7,48,30.45,10.0,NNE,11.5,19.6,N/A,,Clear,30,2012-11-17 16:35:00
12:55 PM,56.1,33.1,42,30.41,10.0,NNE,6.9,-,N/A,,Clear,30,2012-11-17 17:55:00
1:15 PM,55.9,32.5,41,30.40,10.0,NNE,8.1,17.3,N/A,,Clear,20,2012-11-17 18:15:00
1:35 PM,56.5,32.9,41,30.39,10.0,NE,6.9,16.1,N/A,,Clear,50,2012-11-17 18:35:00
1:55 PM,57.2,33.6,41,30.38,10.0,NE,8.1,-,N/A,,Clear,50,2012-11-17 18:55:00
2:15 PM,57.4,33.1,40,30.38,10.0,NNE,9.2,-,N/A,,Clear,20,2012-11-17 19:15:00
2:35 PM,57.9,33.6,40,30.38,10.0,NNE,10.4,16.1,N/A,,Clear,30,2012-11-17 19:35:00
2:55 PM,57.7,33.4,40,30.38,7.0,NNE,8.1,-,N/A,,Clear,20,2012-11-17 19:55:00
3:15 PM,58.3,33.6,39,30.38,10.0,NNE,9.2,-,N/A,,Clear,30,2012-11-17 20:15:00
3:35 PM,57.7,33.4,40,30.38,10.0,North,10.4,-,N/A,,Clear,10,2012-11-17 20:35:00
3:55 PM,57.4,33.4,40,30.38,10.0,NNE,8.1,-,N/A,,Clear,20,2012-11-17 20:55:00
4:15 PM,57.4,33.4,40,30.38,10.0,NE,8.1,-,N/A,,Clear,40,2012-11-17 21:15:00
4:35 PM,56.7,33.8,42,30.38,10.0,NNE,6.9,-,N/A,,Clear,20,2012-11-17 21:35:00
4:55 PM,55.6,33.6,44,30.39,10.0,NNE,6.9,-,N/A,,Clear,20,2012-11-17 21:55:00
5:15 PM,53.4,34.7,49,30.39,10.0,North,3.5,-,N/A,,Clear,360,2012-11-17 22:15:00
5:35 PM,49.8,35.8,59,30.39,10.0,North,3.5,-,N/A,,Clear,10,2012-11-17 22:35:00
5:55 PM,47.8,37.4,67,30.39,10.0,NNE,3.5,-,N/A,,Clear,20,2012-11-17 22:55:00
6:15 PM,47.1,36.0,65,30.40,10.0,Calm,Calm,-,N/A,,Clear,0,2012-11-17 23:15:00
6:35 PM,47.1,35.2,63,30.41,10.0,NE,4.6,-,N/A,,Clear,50,2012-11-17 23:35:00
6:55 PM,47.8,34.0,59,30.41,10.0,NE,4.6,-,N/A,,Clear,40,2012-11-17 23:55:00
7:15 PM,47.5,33.4,58,30.41,10.0,NE,4.6,-,N/A,,Clear,40,2012-11-18 00:15:00
7:35 PM,45.9,34.7,65,30.42,10.0,NNE,5.8,-,N/A,,Clear,30,2012-11-18 00:35:00
7:55 PM,48.4,32.9,55,30.42,10.0,NE,5.8,-,N/A,,Scattered Clouds,40,2012-11-18 00:55:00
8:15 PM,50.2,33.1,52,30.43,10.0,NE,4.6,-,N/A,,Overcast,50,2012-11-18 01:15:00
8:35 PM,50.5,33.3,52,30.43,10.0,NE,6.9,-,N/A,,Overcast,50,2012-11-18 01:35:00
8:55 PM,50.9,33.1,51,30.43,10.0,NE,4.6,-,N/A,,Overcast,50,2012-11-18 01:55:00
9:15 PM,51.1,33.4,51,30.43,10.0,NNE,4.6,-,N/A,,Overcast,30,2012-11-18 02:15:00
9:35 PM,51.6,32.2,47,30.43,10.0,NE,5.8,-,N/A,,Overcast,50,2012-11-18 02:35:00
9:55 PM,51.8,32.2,47,30.42,10.0,NE,5.8,-,N/A,,Overcast,50,2012-11-18 02:55:00
10:15 PM,51.6,31.8,47,30.42,10.0,NE,10.4,16.1,N/A,,Overcast,40,2012-11-18 03:15:00
10:35 PM,51.3,31.8,47,30.41,10.0,NE,11.5,18.4,N/A,,Overcast,50,2012-11-18 03:35:00
10:55 PM,51.4,31.8,47,30.42,10.0,NE,11.5,16.1,N/A,,Overcast,40,2012-11-18 03:55:00
11:15 PM,51.8,31.5,46,30.42,10.0,NE,11.5,19.6,N/A,,Overcast,40,2012-11-18 04:15:00
11:35 PM,51.4,31.6,47,30.42,10.0,NE,9.2,-,N/A,,Overcast,40,2012-11-18 04:35:00
11:55 PM,51.3,31.8,47,30.42,10.0,NE,10.4,16.1,N/A,,Overcast,40,2012-11-18 04:55:00